Weather in Saguny

Russia / Voronezh Oblast     50°35′48″N   39°43′32″E
temp.,
°C
wind,
m/s
gust,
m/s
humid.,
%
clouds,
%
prec.,
mm/h
press.,
hPa
HPBL,
m
21 january, fri
fri2100:00−14s31298100 0.0 1016192
03:00−9sse51386100 0.0 1014323
06:00−7sse71695100 0.7 1010479
09:00−5sse81895100 2.7 1008621
12:00−2s81595100 1.5 1006700
15:000sw6109596 2.1 1005795
18:00−2wsw7129015 1.4 1007834
21:00−6sw613925 1.4 1008339
22 january, sat
sat2200:00−8ssw5139461 0.0 1010278
03:00−10ssw4129671 0.0 1010216
06:00−10ssw4129782 0.0 1010212
09:00−11ssw41197100 0.0 1011204
12:00−6ssw51194100 0.0 1012371
15:00−6ssw499478 0.0 1013362
18:00−11s3499100 0.0 101542
21:00−9s269875 0.1 101696
23 january, sun
sun2300:00−13ssw229974 0.1 101810
03:00−15sse11100100 0.1 10199
06:00−13ne11100100 0.0 102010
09:00−12ne2298100 0.0 102232
12:00−6ne4692100 0.0 1021195
15:00−5nne61193100 0.0 1021443
18:00−4ne81696100 1.3 1020655
21:00−3ne71397100 3.7 1020594
24 january, mon
mon2400:00−2e61297100 2.2 1020591
03:00−4e71296100 4.7 1022472
06:00−6ene61195100 0.8 1023397
09:00−7ene51194100 1.2 1024345
12:00−6ene5893100 0.2 1025364
15:00−5ene5995100 0.4 1025416
18:00−7ene51095100 0.1 1025303
21:00−8ene499696 0.1 1025256
25 january, tue
tue2500:00−7e4995100 0.2 1025278
03:00−8e3896100 0.4 1024202
06:00−8e3896100 0.2 1024213
09:00−9e269878 0.3 1025122
12:00−5se469499 0.1 1024290
15:00−3se469499 0.3 1023397
18:00−4ese2598100 0.2 1023141
21:00−3se2498100 0.4 1023151